Home   Weather   Davos   Past weeks

Flag for Switzerland Past Weather in Davos, Graubünden, Switzerland — Yesterday and Last 2 Weeks

Now
57 °F

Cool.


Feels Like: 57 °F
Forecast: 36 / 58 °F
Wind: 5 mph from North

Location: Chur

Current Time: Jul 26, 2017 at 12:56:11 pm

Latest Report: Jul 26, 2017 at 12:00 pm


Visibility: N/A

Pressure: 29.90 "Hg (24.89 "Hg at 1540m altitude)

Humidity: 83%

Dew Point: 52 °F

Location of DavosLocation

Past Weather in Davos — Graph

°F

Davos Temperature Yesterday

Maximum temperature yesterday: 60 °F (at 1:00 pm)
Minimum temperature yesterday: 54 °F (at 6:00 am)
Average temperature yesterday: 56 °F

High & Low Weather Summary for the Past Weeks

 TemperatureHumidityPressure
High92 °F (Jul 19, 4:00 pm)96% (Jul 24, 6:00 am)30.31 "Hg (Jul 24, 6:00 am)
Low52 °F (Jul 16, 6:00 am)26% (Jul 19, 4:00 pm)29.72 "Hg (Jul 21, 6:00 pm)
Average67 °F71%29.99 "Hg
* Reported Jul 11 11:00 am — Jul 26 11:00 am, Davos. Weather by CustomWeather, © 2017

Note: Actual official high and low records may vary slightly from our data, if they occured in-between our weather recording intervals... More about our weather records

Advertising

Davos Weather History for the Previous 24 Hours

Scroll right to see more
 ConditionsComfort  
Time TempWeatherWind HumidityBarometerVisibility
11:00 am
Wed, Jul 26
56 °FFog.5 mph88%29.90 "Hg7 mi
10:00 am55 °FCool.5 mph94%29.91 "HgN/A
9:00 am54 °FCool.2 mph94%29.90 "HgN/A
8:00 am54 °FLight rain. Low clouds.2 mph95%29.90 "Hg5 mi
7:00 am53 °FCool.1 mph96%29.90 "HgN/A
6:00 am54 °FCool.1 mph95%29.88 "HgN/A
5:00 am54 °FDrizzle. Overcast.1 mph95%29.88 "Hg3 mi
4:00 am54 °FCool.1 mph95%29.90 "HgN/A
3:00 am54 °FCool.2 mph95%29.89 "HgN/A
2:00 am54 °FFog.1 mph94%29.90 "Hg3 mi
1:00 am54 °FCool.2 mph95%29.92 "HgN/A
12:00 am54 °FCool.1 mph94%29.93 "HgN/A
11:00 pm
Tue, Jul 25
54 °FFog.2 mph91%29.90 "Hg4 mi
10:00 pm54 °FCool.5 mph93%29.91 "HgN/A
9:00 pm54 °FCool.7 mph89%29.91 "HgN/A
8:00 pm55 °FLight rain. Low clouds.7 mph87%29.90 "Hg2 mi
7:00 pm57 °FCool.8 mph83%29.89 "HgN/A
6:00 pm58 °FCool.9 mph78%29.89 "HgN/A
5:00 pm58 °FFog.7 mph77%29.89 "Hg5 mi
4:00 pm58 °FCool.12 mph78%29.89 "HgN/A
3:00 pm57 °FCool.13 mph85%29.91 "HgN/A
2:00 pm58 °FDrizzle. Overcast.10 mph85%29.90 "Hg4 mi
1:00 pm60 °FCool.3 mph72%29.89 "HgN/A
12:00 pm57 °FCool.1 mph86%29.91 "HgN/A
Weather by CustomWeather, © 2017

See weather overviewHow to use our weather pages